Location: Waco, TX
(31.5480°N, 97.1670°W)
Time: 11:03:17
(UTC-05:00)

ISS - Pass Details

Date: 17 May 2018
Orbit: 402 x 407 km, 51.6° (Epoch: 23 May)

Event Time Altitude Azimuth Distance (km) Brightness Sun altitude
Rises 08:12:37 0° 296° (WNW) 2,312 -0.5 19.8°
Reaches altitude 10° 08:15:13 10° 274° (W) 1,450 -1.5 20.4°
Maximum altitude 08:17:19 16° 233° (SW) 1,135 -2.0 20.8°
Drops below altitude 10° 08:19:25 10° 193° (SSW) 1,446 -1.2 21.3°
Sets 08:22:02 0° 170° (S) 2,301 0.0 21.8°
